Tracking 35275 objects as of 9-Sep-2026
HD Live streaming from Space Station
objects crossing your sky now

COSMOS 1501 DEB


COSMOS 1501 DEB is no longer on orbit


NORAD ID: 15277
Int'l Code: 1983-101L
Launch date: September 30, 1983
Source: Commonwealth of Independent States (former USSR) (CIS)
Launch site: PLESETSK MISSILE AND SPACE COMPLEX (PKMTR)
Decay date: 1986-10-13

Note: This is SATELLITE DEBRIS
Your satellite tracking list
Your tracking list is empty




NASA's NSSDC Master Catalog

Two Line Element Set (TLE):
1 15277U 83101L   86284.95100560  .03291485 -23616-5 +22073-2 0  9991
2 15277 082.8995 209.7487 0008116 170.6691 189.4768 16.16838187170569
Source of the keplerian elements: AFSPC